FW8419 Weather Reports


Display with metric or nautical units.
time (UTC)temp
F
wind
direction
speed
MPH
gust
MPH
rain 1hr
in
rain 24hr
in
rain mn
in
humidity
%
barometer
mb
20260506185144 57 130 2.0 8.0 0.00 0.00 0.00 79 1019.2
20260506184122 56 151 3.0 11.0 0.00 0.00 0.00 80 1019.2
20260506183143 56 140 2.0 10.0 0.00 0.00 0.00 80 1019.3
20260506182122 56 178 1.0 6.0 0.00 0.00 0.00 80 1019.1
20260506181122 56 127 1.0 8.0 0.00 0.00 0.00 82 1019.0
20260506180145 56 117 2.0 6.0 0.00 0.00 0.00 82 1019.0
20260506175122 56 108 1.0 6.0 0.00 0.00 0.00 82 1019.0
20260506174122 56 74 1.0 5.0 0.00 0.00 0.00 82 1019.0
20260506173122 55 139 1.0 5.0 0.00 0.00 0.00 82 1019.0
20260506172124 55 140 3.0 11.0 0.00 0.00 0.00 81 1019.0
20260506171122 55 149 1.0 6.0 0.00 0.00 0.00 82 1019.0
20260506170122 55 154 1.0 8.0 0.00 0.00 0.00 82 1019.0
20260506165145 55 166 2.0 10.0 0.00 0.00 0.00 82 1019.0
20260506164122 55 133 4.0 13.0 0.00 0.00 0.00 82 1018.8
20260506163123 55 140 3.0 10.0 0.00 0.00 0.00 82 1018.7
20260506162122 55 169 1.0 8.0 0.00 0.00 0.00 82 1018.8
20260506161124 55 147 1.0 11.0 0.00 0.00 0.00 83 1018.8
20260506160122 55 133 3.0 8.0 0.00 0.00 0.00 82 1019.0
20260506155123 55 128 2.0 8.0 0.00 0.00 0.00 84 1018.8
20260506154124 55 150 2.0 10.0 0.00 0.00 0.00 84 1018.7
20260506153123 55 123 0.0 5.0 0.00 0.00 0.00 86 1018.7
20260506152123 55 131 1.0 6.0 0.00 0.00 0.00 85 1018.7
20260506151122 54 156 1.0 6.0 0.00 0.00 0.00 84 1018.7
20260506150123 54 176 1.0 5.0 0.00 0.00 0.00 85 1018.6
20260506145122 55 123 2.0 13.0 0.00 0.00 0.00 85 1018.5
20260506144143 55 121 1.0 8.0 0.00 0.00 0.00 86 1018.4
20260506143145 54 125 2.0 13.0 0.00 0.00 0.00 85 1017.9
20260506142122 54 132 5.0 18.0 0.00 0.00 0.00 85 1017.8
20260506141124 54 126 1.0 6.0 0.00 0.00 0.00 85 1017.9
20260506140122 54 130 2.0 14.0 0.00 0.00 0.00 85 1017.9
20260506135123 54 130 3.0 8.0 0.00 0.00 0.00 86 1017.6
20260506134122 54 147 1.0 8.0 0.00 0.00 0.00 85 1017.8
20260506133143 54 141 5.0 18.0 0.00 0.00 0.00 85 1017.8
20260506132122 54 153 2.0 10.0 0.00 0.00 0.00 85 1017.7
20260506131122 54 157 2.0 10.0 0.00 0.00 0.00 85 1017.6
20260506130122 54 135 1.0 8.0 0.00 0.00 0.00 85 1017.5
20260506125124 54 148 4.0 14.0 0.00 0.00 0.00 86 1017.2
20260506124123 54 142 3.0 13.0 0.00 0.00 0.00 85 1017.2
20260506123123 54 136 3.0 16.0 0.00 0.00 0.00 85 1017.1
20260506122122 54 145 3.0 13.0 0.00 0.00 0.00 85 1017.1
20260506121124 54 145 3.0 13.0 0.00 0.00 0.00 84 1017.2
20260506120122 55 142 2.0 8.0 0.00 0.00 0.00 84 1017.1
20260506115124 55 136 2.0 8.0 0.00 0.00 0.00 83 1017.2
20260506114124 55 130 2.0 6.0 0.00 0.00 0.00 83 1017.1
20260506113144 55 138 2.0 8.0 0.00 0.00 0.00 84 1016.9
20260506112122 55 128 2.0 8.0 0.00 0.00 0.00 85 1016.8
20260506111122 55 128 3.0 10.0 0.00 0.00 0.00 85 1016.7
20260506110122 55 124 3.0 10.0 0.00 0.00 0.00 85 1016.7
20260506105122 55 129 3.0 10.0 0.00 0.00 0.00 85 1016.6
20260506104143 55 125 3.0 11.0 0.00 0.00 0.00 85 1016.4
20260506103122 55 121 3.0 10.0 0.00 0.00 0.00 85 1016.4
20260506102122 55 116 1.0 6.0 0.00 0.00 0.00 85 1016.3
20260506101122 55 124 2.0 8.0 0.00 0.00 0.00 84 1016.1
20260506100123 55 126 3.0 10.0 0.00 0.00 0.00 84 1016.1
20260506095122 55 115 3.0 6.0 0.00 0.00 0.00 84 1015.9
20260506094124 55 117 3.0 10.0 0.00 0.00 0.00 84 1015.8
20260506093122 55 117 2.0 8.0 0.00 0.00 0.00 84 1015.7
20260506092122 55 120 2.0 11.0 0.00 0.00 0.00 84 1015.7
20260506091122 55 122 3.0 11.0 0.00 0.00 0.00 85 1015.7
20260506090122 55 127 3.0 10.0 0.00 0.00 0.00 85 1015.6
20260506085122 55 120 4.0 13.0 0.00 0.00 0.00 85 1015.5
20260506084122 55 118 2.0 6.0 0.00 0.00 0.00 85 1015.4
20260506083122 56 118 2.0 6.0 0.00 0.00 0.00 84 1015.4
20260506082124 56 120 2.0 6.0 0.00 0.00 0.00 84 1015.5
20260506081123 56 115 3.0 10.0 0.00 0.00 0.00 84 1015.4
20260506080122 56 124 3.0 11.0 0.00 0.00 0.00 84 1015.3
20260506073122 56 125 4.0 11.0 0.00 0.00 0.00 84 1014.9
20260506072124 56 123 4.0 13.0 0.00 0.00 0.00 84 1015.0
20260506071122 57 128 4.0 11.0 0.00 0.00 0.00 84 1015.1
20260506070124 57 125 3.0 10.0 0.00 0.00 0.00 83 1014.9
20260506062122 58 119 1.0 5.0 0.00 0.00 0.00 80 1014.7
20260506061122 58 120 1.0 3.0 0.00 0.00 0.00 80 1014.6
20260506060122 58 127 1.0 5.0 0.00 0.00 0.00 80 1014.5
20260506051143 60 135 0.0 3.0 0.00 0.00 0.00 76 1014.2
20260506050122 60 137 0.0 2.0 0.00 0.00 0.00 75 1014.2
20260506045122 61 135 1.0 5.0 0.00 0.00 0.00 74 1014.1
20260506044143 61 119 0.0 3.0 0.00 0.00 0.00 74 1014.1
20260506043124 61 128 1.0 6.0 0.00 0.00 0.00 73 1014.1
20260506042143 61 102 0.0 3.0 0.00 0.00 0.00 72 1014.0
20260506041122 62 129 1.0 5.0 0.00 0.00 0.00 72 1013.9
20260506040122 62 128 1.0 3.0 0.00 0.00 0.00 71 1013.7
20260506035122 62 133 1.0 3.0 0.00 0.00 0.00 70 1013.6
20260506034122 62 132 2.0 5.0 0.00 0.00 0.00 69 1013.5
20260506033123 63 142 1.0 5.0 0.00 0.00 0.00 69 1013.4
20260506032122 63 167 0.0 3.0 0.00 0.00 0.00 68 1013.2
20260506031124 63 164 1.0 8.0 0.00 0.00 0.00 68 1013.2
20260506030122 63 246 1.0 5.0 0.00 0.00 0.00 67 1013.1
20260506025124 64 232 0.0 5.0 0.00 0.00 0.00 66 1013.1
20260506024144 64 217 1.0 8.0 0.00 0.00 0.00 66 1013.0
20260506023122 65 232 1.0 6.0 0.00 0.00 0.00 64 1012.9
20260506022145 66 262 2.0 10.0 0.00 0.00 0.00 65 1013.1
20260506021122 65 252 1.0 6.0 0.00 0.00 0.00 65 1013.1
20260506020143 65 262 3.0 11.0 0.00 0.00 0.00 65 1013.1
20260506015123 65 234 2.0 8.0 0.00 0.00 0.00 65 1013.2
20260506014122 65 224 3.0 10.0 0.00 0.00 0.00 64 1013.2
20260506013122 65 236 3.0 14.0 0.00 0.00 0.00 64 1013.1
20260506012122 66 226 3.0 13.0 0.00 0.00 0.00 63 1013.3
20260506011122 66 234 3.0 14.0 0.00 0.00 0.00 65 1013.2
20260506010122 66 234 4.0 13.0 0.00 0.00 0.00 63 1013.4
20260506005122 66 231 5.0 16.0 0.00 0.00 0.00 64 1013.3
20260506004122 67 232 3.0 13.0 0.00 0.00 0.00 62 1013.2
20260506003122 67 224 3.0 16.0 0.00 0.00 0.00 63 1013.1
20260506002122 67 228 3.0 11.0 0.00 0.00 0.00 61 1013.3
20260506001122 68 219 4.0 14.0 0.00 0.00 0.00 60 1013.3
20260506000145 67 223 2.0 10.0 0.00 0.00 0.00 62 1013.3
20260505235123 68 231 5.0 14.0 0.00 0.00 0.00 61 1013.4
20260505234122 68 243 2.0 10.0 0.00 0.00 0.00 63 1013.4
20260505233145 68 228 3.0 10.0 0.00 0.00 0.00 62 1013.5
20260505232122 67 270 3.0 13.0 0.00 0.00 0.00 63 1013.7
20260505231143 67 238 3.0 13.0 0.00 0.00 0.00 63 1013.8
20260505230124 67 263 3.0 11.0 0.00 0.00 0.00 63 1014.0
20260505225145 67 231 3.0 13.0 0.00 0.00 0.00 62 1014.1
20260505224122 68 252 2.0 13.0 0.00 0.00 0.00 62 1014.0
20260505223122 67 255 3.0 19.0 0.00 0.00 0.00 61 1014.1
20260505222122 67 276 4.0 11.0 0.00 0.00 0.00 62 1014.2
20260505221124 67 242 3.0 13.0 0.00 0.00 0.00 62 1014.2
20260505220124 67 261 4.0 14.0 0.00 0.00 0.00 63 1014.3
20260505215122 67 256 3.0 14.0 0.00 0.00 0.00 63 1014.2
20260505214124 67 278 4.0 16.0 0.00 0.00 0.00 63 1014.3
20260505213124 67 254 3.0 11.0 0.00 0.00 0.00 63 1014.3
20260505212122 67 269 3.0 13.0 0.00 0.00 0.00 65 1014.4
20260505211122 66 297 5.0 19.0 0.00 0.00 0.00 64 1014.4
20260505210122 66 286 3.0 14.0 0.00 0.00 0.00 65 1014.5
20260505205124 66 285 3.0 14.0 0.00 0.00 0.00 64 1014.6
20260505204124 67 253 3.0 14.0 0.00 0.00 0.00 64 1014.7
20260505203124 66 237 3.0 11.0 0.00 0.00 0.00 64 1014.7
20260505202122 66 161 3.0 13.0 0.00 0.00 0.00 66 1014.7
20260505201144 66 233 4.0 18.0 0.00 0.00 0.00 66 1014.8
20260505200123 65 243 2.0 10.0 0.00 0.00 0.00 68 1014.8
20260505195124 64 231 4.0 19.0 0.00 0.00 0.00 68 1014.8
20260505194122 64 238 3.0 16.0 0.00 0.00 0.00 69 1014.9
20260505193143 64 225 4.0 16.0 0.00 0.00 0.00 69 1014.8
20260505192122 63 234 3.0 13.0 0.00 0.00 0.00 69 1015.0
20260505191122 62 268 3.0 14.0 0.00 0.00 0.00 70 1015.0
20260505190143 62 220 5.0 14.0 0.00 0.00 0.00 73 1014.9